GSAT0103 (GALILEO-FM3)

Last updated on Sun Sep 06 2026 00:02:47 GMT+0000 (Coordinated Universal Time)

1 38857U 12055A 26248.25165256 .00000013 00000+0 00000+0 0 9990 2 38857 55.8546 99.3469 0002137 316.0932 43.9759 1.70473387 86374
UTC large
Height (km)
Speed (km/s)
/
Latitude / Longitude
Inclination (degrees)
Orbital Period (minutes)
Azimuth
Elevation
Range (km)
Doppler Factor

Next 0 passes for location: London (51.5072 / 0.1276)

No passes found over London.
GSAT0103 (GALILEO-FM3)